Latest Coastal Weather Observations for Willis Island

IDQ60701

Issued at 12:45 am EST Thursday 17 April 2014 (issued every 10 minutes, with the page automatically refreshed every 10 minutes)

About coastal observations | Map of coastal stations | Coastal observations for QLD | Marine services | Other Formats
Station Details ID: 200283 Name: WILLIS ISLAND Lat: -16.29 Lon: 149.97 Height: 9.29 m
Data from the previous 72 hours. | See also: Recent months at Willis Island
Date/Time
EST
Temp

°C
Wind Pressure Rain
since 9am
mm
Weather Cloud Vis
km
Sea
Height
m
Swell
Dir
 
Speed
knots
Gust
knots
hPa Trend Height
m
Period
s
Dir
17/12:30am 26.8 ESE 20 24 1012.8 - 0.0 - - - - - - -
17/12:00am 26.9 ESE 19 22 1013.0 - 0.0 - - - - - - -
 
Date/Time
EST
Temp

°C
Wind Pressure Rain
since 9am
mm
Weather Cloud Vis
km
Sea
Height
m
Swell
Dir
 
Speed
knots
Gust
knots
hPa Trend Height
m
Period
s
Dir
16/11:30pm 27.1 ESE 19 21 1013.2 - 0.0 - - - - - - -
16/11:00pm 27.2 ESE 19 21 1013.3 - 0.0 - - - - - - -
16/10:30pm 27.2 ESE 18 20 1013.3 - 0.0 - - - - - - -
16/10:00pm 27.1 ESE 18 21 1013.3 - 0.0 - - - - - - -
16/09:30pm 26.9 ESE 17 19 1013.2 - 0.0 - - - - - - -
16/09:00pm 25.6 SE 17 20 1013.3 R 0.0 Showers Mostly cloudy 15 2 - - -
16/08:30pm 27.1 ESE 16 19 1013.0 - 0.0 - - - - - - -
16/08:00pm 27.0 ESE 17 19 1012.7 - 0.0 - - - - - - -
16/07:30pm 27.1 ESE 17 20 1012.2 - 0.0 - - - - - - -
16/07:00pm 27.0 ESE 17 19 1012.0 - 0.0 - - - - - - -
16/06:30pm 26.9 ESE 17 20 1011.5 - 0.0 - - - - - - -
16/06:00pm 26.9 ESE 17 19 1011.0 F 0.0 Fine Mostly cloudy 30 1 1.5 8 SE
16/05:30pm 26.9 ESE 18 21 1010.9 - 0.0 - - - - - - -
16/05:00pm 27.1 ESE 17 19 1010.6 - 0.0 - - - - - - -
16/04:30pm 27.6 ESE 17 19 1010.4 - 0.0 - - - - - - -
16/04:00pm 27.9 ESE 16 19 1010.1 - 0.0 - - - - - - -
16/03:30pm 28.5 SE 15 18 1010.1 - 0.0 - - - - - - -
16/03:00pm 28.5 ESE 16 18 1010.3 F 0.0 Fine Partly cloudy 30 1 1.0 8 SE
16/02:30pm 28.6 SE 15 18 1010.4 - 0.0 - - - - - - -
16/02:00pm 28.4 SE 15 18 1010.8 - 0.0 - - - - - - -
16/01:30pm 29.0 ESE 15 18 1011.2 - 0.0 - - - - - - -
16/01:00pm 29.2 SE 14 16 1011.4 - 0.0 - - - - - - -
16/12:30pm 29.0 SE 13 17 1011.6 - 0.0 - - - - - - -
16/12:00pm 29.3 SE 13 16 1012.0 F 0.0 Fine Partly cloudy 30 1 0.5 8 SE
16/11:30am 29.0 ESE 14 16 1012.3 - 0.0 - - - - - - -
16/11:00am 29.2 SE 14 16 1012.9 - 0.0 - - - - - - -
16/10:30am 28.2 SE 14 16 1013.2 - 0.0 - - - - - - -
16/10:00am 28.6 SE 14 16 1013.5 - 0.0 - - - - - - -
16/09:30am 27.4 ESE 15 17 1013.5 - 0.0 - - - - - - -
16/09:00am 27.3 SE 15 18 1013.3 F 0.0 Fine Mostly cloudy 30 1 1.0 8 SE
16/08:30am 27.2 SE 15 17 1013.1 - 0.0 - - - - - - -
16/08:00am 27.2 SE 15 16 1013.0 - 0.0 - - - - - - -
16/07:30am 27.1 SE 14 17 1013.0 - 0.0 - - - - - - -
16/07:00am 26.6 SE 13 14 1012.8 - 0.0 - - - - - - -
16/06:30am 26.3 ESE 13 15 1012.4 - 0.0 - - - - - - -
16/06:00am 26.2 ESE 12 14 1012.0 F 0.0 Fine Mostly cloudy 30 1 0.5 8 SE
16/05:30am 26.3 ESE 11 13 1012.0 - 0.0 - - - - - - -
16/05:00am 26.2 ESE 10 12 1011.7 - 0.0 - - - - - - -
16/04:30am 26.2 ESE 11 14 1011.4 - 0.0 - - - - - - -
16/04:00am 26.2 ESE 11 14 1011.3 - 0.0 - - - - - - -
16/03:30am 26.2 ESE 12 15 1011.3 - 0.0 - - - - - - -
16/03:00am 26.3 SE 12 15 1011.4 - 0.0 - - - - - - -
16/02:30am 26.3 SE 14 16 1011.4 - 0.0 - - - - - - -
16/02:00am 26.3 SE 14 16 1011.3 - 0.0 - - - - - - -
16/01:30am 26.3 SE 14 17 1011.5 - 0.0 - - - - - - -
16/01:00am 26.4 SE 14 16 1011.9 - 0.0 - - - - - - -
16/12:30am 26.6 SE 14 15 1012.4 - 0.0 - - - - - - -
16/12:00am 26.5 SE 14 17 1013.0 - 0.0 - - - - - - -
 
Date/Time
EST
Temp

°C
Wind Pressure Rain
since 9am
mm
Weather Cloud Vis
km
Sea
Height
m
Swell
Dir
 
Speed
knots
Gust
knots
hPa Trend Height
m
Period
s
Dir
15/11:30pm 26.6 SE 14 16 1013.2 - 0.0 - - - - - - -
15/11:00pm 26.7 SE 14 16 1013.5 - 0.0 - - - - - - -
15/10:30pm 26.7 SE 14 16 1013.6 - 0.0 - - - - - - -
15/10:00pm 26.7 SE 14 16 1013.6 - 0.0 - - - - - - -
15/09:30pm 26.7 SE 14 16 1013.5 - 0.0 - - - - - - -
15/09:00pm 26.7 SE 14 18 1013.3 R 0.0 Fine Mostly clear 25 1 - - -
15/08:30pm 26.7 SSE 15 17 1013.1 - 0.0 - - - - - - -
15/08:00pm 26.8 SE 15 17 1012.7 - 0.0 - - - - - - -
15/07:30pm 26.9 SSE 15 18 1012.3 - 0.0 - - - - - - -
15/07:00pm 26.9 SE 15 17 1011.9 - 0.0 - - - - - - -
15/06:30pm 26.7 SSE 14 16 1011.4 - 0.0 - - - - - - -
15/06:00pm 26.7 SSE 13 15 1011.2 R 0.0 Fine Partly cloudy 25 1 1.0 8 SE
15/05:30pm 26.8 SSE 13 15 1010.9 - 0.0 - - - - - - -
15/05:00pm 27.0 SSE 13 15 1010.5 - 0.0 - - - - - - -
15/04:30pm 27.8 SSE 13 15 1010.3 - 0.0 - - - - - - -
15/04:00pm 27.6 SSE 13 15 1009.9 - 0.0 - - - - - - -
15/03:30pm 28.1 SE 11 13 1009.6 - 0.0 - - - - - - -
15/03:00pm 28.8 ESE 11 13 1009.6 R 0.0 Fine Partly cloudy 30 1 1.0 6 SE
15/02:30pm 28.9 SE 11 13 1009.8 - 0.0 - - - - - - -
15/02:00pm 29.2 SE 11 13 1010.0 - 0.0 - - - - - - -
15/01:30pm 28.2 SE 12 14 1010.3 - 0.0 - - - - - - -
15/01:00pm 28.8 ESE 11 14 1010.6 - 0.0 - - - - - - -
15/12:30pm 29.1 SE 11 13 1010.8 - 0.0 - - - - - - -
15/12:00pm 29.0 SE 11 13 1011.1 F 0.0 Fine Partly cloudy 20 1 1.0 5 SE
15/11:30am 29.0 SE 12 14 1011.5 - 0.0 - - - - - - -
15/11:00am 28.9 ESE 11 14 1012.0 - 0.0 - - - - - - -
15/10:30am 29.1 ESE 12 13 1012.5 - 0.0 - - - - - - -
15/10:00am 28.8 ESE 11 13 1013.0 - 0.0 - - - - - - -
15/09:30am 27.9 SE 12 14 1012.9 - 0.0 - - - - - - -
15/09:00am 28.2 ESE 13 15 1012.8 F 2.2 Fine Partly cloudy 20 1 1.0 5 SE
15/08:30am 28.0 SE 13 14 1012.7 - 2.0 - - - - - - -
15/08:00am 27.8 SE 13 14 1012.5 - 2.0 - - - - - - -
15/07:30am 27.2 SE 13 16 1012.2 - 2.0 - - - - - - -
15/07:00am 26.5 SE 14 16 1012.0 - 2.0 - - - - - - -
15/06:30am 26.4 SSE 14 16 1011.7 - 2.0 - - - - - - -
15/06:00am 26.4 SE 15 17 1011.3 R 2.0 Fine Mostly cloudy 20 1 1.0 6 SE
15/05:30am 26.3 SE 14 17 1010.9 - 2.0 - - - - - - -
15/05:00am 26.3 SE 14 16 1010.8 - 2.0 - - - - - - -
15/04:30am 26.2 SE 14 15 1010.8 - 2.0 - - - - - - -
15/04:00am 26.2 SE 14 15 1010.7 - 2.0 - - - - - - -
15/03:30am 26.2 SE 14 16 1010.6 - 2.0 - - - - - - -
15/03:00am 26.2 SSE 14 16 1010.5 - 2.0 - - - - - - -
15/02:30am 26.4 SSE 13 15 1010.4 - 2.0 - - - - - - -
15/02:00am 26.7 SE 13 14 1010.6 - 2.0 - - - - - - -
15/01:30am 26.6 SSE 15 17 1010.7 - 2.0 - - - - - - -
15/01:00am 26.7 SE 13 14 1011.1 - 2.0 - - - - - - -
15/12:30am 26.9 SE 13 14 1011.3 - 1.8 - - - - - - -
15/12:00am 26.8 SE 13 14 1011.4 - 1.8 - - - - - - -
 
Date/Time
EST
Temp

°C
Wind Pressure Rain
since 9am
mm
Weather Cloud Vis
km
Sea
Height
m
Swell
Dir
 
Speed
knots
Gust
knots
hPa Trend Height
m
Period
s
Dir
14/11:30pm 26.8 SE 13 14 1011.4 - 1.8 - - - - - - -
14/11:00pm 26.8 SE 12 13 1011.6 - 1.8 - - - - - - -
14/10:30pm 26.9 SE 11 13 1011.8 - 1.8 - - - - - - -
14/10:00pm 26.9 SE 12 14 1011.7 - 1.8 - - - - - - -
14/09:30pm 26.9 SSE 12 13 1011.7 - 1.8 - - - - - - -
14/09:00pm 26.8 SSE 12 13 1011.6 R 1.8 Fine Mostly cloudy 20 1 - - -
14/08:30pm 26.8 SSE 11 12 1011.3 - 1.8 - - - - - - -
14/08:00pm 26.8 SSE 10 12 1011.0 - 1.8 - - - - - - -
14/07:30pm 26.7 S 11 12 1010.6 - 1.8 - - - - - - -
14/07:00pm 26.7 S 11 12 1010.1 - 1.8 - - - - - - -
14/06:30pm 26.6 S 11 13 1009.6 - 1.8 - - - - - - -
14/06:00pm 26.7 S 11 12 1009.3 S 1.8 Distant precip. Mostly cloudy 20 1 1.0 7 NE
14/05:30pm 26.9 S 9 11 1009.1 - 1.8 - - - - - - -
14/05:00pm 27.2 S 7 8 1008.9 - 1.8 - - - - - - -
14/04:30pm 27.1 SW 5 7 1008.6 - 1.8 - - - - - - -
14/04:00pm 27.6 W 4 6 1008.4 - 1.8 - - - - - - -
14/03:30pm 27.3 WNW 5 6 1008.1 - 1.8 - - - - - - -
14/03:00pm 26.5 WNW 6 9 1008.2 R 1.4 Showers Mostly cloudy 20 1 1.0 8 NW
14/02:30pm 27.2 SW 8 9 1008.0 - 0.0 - - - - - - -
14/02:00pm 28.1 W 8 9 1008.1 - 0.0 - - - - - - -
14/01:30pm 27.1 W 11 13 1008.3 - 0.0 - - - - - - -
14/01:00pm 28.3 W 9 11 1008.5 - 0.0 - - - - - - -
14/12:30pm 29.6 WNW 7 8 1008.8 - 0.0 - - - - - - -
14/12:00pm 29.1 NNW 6 7 1009.1 F 0.0 Distant precip. Mostly cloudy 30 1 1.0 6 NW
14/11:30am 29.3 NNW 10 13 1009.5 - 0.0 - - - - - - -
14/11:00am 29.5 NNW 9 12 1009.8 - 0.0 - - - - - - -
14/10:30am 29.3 NNW 7 10 1010.2 - 0.0 - - - - - - -
14/10:00am 28.7 NNW 9 12 1010.3 - 0.0 - - - - - - -
14/09:30am 29.4 NNW 10 12 1010.4 - 0.0 - - - - - - -
14/09:00am 29.2 NW 9 11 1010.4 R 0.0 Fine Mostly cloudy 30 1 1.5 7 NW
14/08:30am 28.0 NW 9 11 1010.1 - 0.0 - - - - - - -
14/08:00am 28.0 NNW 10 13 1009.8 - 0.0 - - - - - - -
14/07:30am 28.0 N 13 15 1009.3 - 0.0 - - - - - - -
14/07:00am 27.3 NNW 13 15 1008.9 - 0.0 - - - - - - -
14/06:30am 27.2 NNW 11 13 1008.8 - 0.0 - - - - - - -
14/06:00am 26.9 NNW 13 15 1008.3 R 0.0 Fine Mostly cloudy 25 1 1.5 7 NW
14/05:30am 26.8 NNW 13 15 1007.7 - 0.0 - - - - - - -
14/05:00am 26.9 NNW 14 16 1007.4 - 0.0 - - - - - - -
14/04:30am 26.9 NNW 13 15 1007.4 - 0.0 - - - - - - -
14/04:00am 26.9 NNW 15 17 1007.2 - 0.0 - - - - - - -
14/03:30am 26.9 NNW 15 17 1007.3 - 0.0 - - - - - - -
14/03:00am 27.0 N 16 19 1007.5 - 0.0 - - - - - - -
14/02:30am 27.0 N 17 19 1007.3 - 0.0 - - - - - - -
14/02:00am 27.1 N 17 20 1007.3 - 0.0 - - - - - - -
14/01:30am 27.1 N 17 20 1007.6 - 0.0 - - - - - - -
14/01:00am 27.1 N 16 19 1008.2 - 0.0 - - - - - - -

Other Formats:

Comma delimited format used in spreadsheet applications
http://www.bom.gov.au/fwo/IDQ60701/IDQ60701.94299.axf

JavaScript Object Notation format (JSON) in row-major order
http://www.bom.gov.au/fwo/IDQ60701/IDQ60701.94299.json